Hourly Weather Aljaraque

Today, 6 March, Saturday

Time Temperature Precipitation Wind Pressure Humidity
00:00 +11°C° 0.1 mm 4 mps 758 mmHg 90%
01:00 +10°C° 0 mm 4 mps 758 mmHg 90%
02:00 +10°C° 0 mm 4 mps 758 mmHg 89%
03:00 +10°C° 0 mm 4 mps 758 mmHg 89%
04:00 +10°C° 0 mm 4 mps 759 mmHg 89%
05:00 +10°C° 0 mm 4 mps 759 mmHg 89%
06:00 +10°C° 0 mm 4 mps 759 mmHg 89%
07:00 +11°C° 0 mm 4 mps 759 mmHg 83%
08:00 +13°C° 0 mm 4 mps 760 mmHg 78%
09:00 +14°C° 0 mm 4 mps 760 mmHg 73%
10:00 +16°C° 0 mm 3 mps 760 mmHg 70%
11:00 +17°C° 0 mm 3 mps 760 mmHg 66%
12:00 +18°C° 0 mm 3 mps 760 mmHg 63%
13:00 +19°C° 0.1 mm 2 mps 760 mmHg 61%
14:00 +19°C° 0.1 mm 2 mps 760 mmHg 60%
15:00 +20°C° 0.1 mm 2 mps 759 mmHg 58%
16:00 +19°C° 0.3 mm 2 mps 759 mmHg 65%
17:00 +18°C° 0.3 mm 3 mps 759 mmHg 72%
18:00 +17°C° 0.3 mm 3 mps 759 mmHg 78%
19:00 +16°C° 0.2 mm 3 mps 760 mmHg 81%
20:00 +14°C° 0.2 mm 3 mps 760 mmHg 84%
21:00 +13°C° 0.2 mm 3 mps 761 mmHg 87%
22:00 +12°C° 0 mm 3 mps 761 mmHg 87%
23:00 +12°C° 0 mm 3 mps 761 mmHg 87%

Tomorrow, 7 March, Sunday

Time Temperature Precipitation Wind Pressure Humidity
00:00 +12°C° 0 mm 3 mps 761 mmHg 87%
01:00 +11°C° 0 mm 3 mps 761 mmHg 88%
02:00 +11°C° 0 mm 3 mps 761 mmHg 89%
03:00 +11°C° 0 mm 3 mps 760 mmHg 89%
04:00 +12°C° 0 mm 2 mps 760 mmHg 90%
05:00 +10°C° 0 mm 2 mps 760 mmHg 90%
06:00 +10°C° 0 mm 2 mps 760 mmHg 90%
07:00 +12°C° 0 mm 2 mps 761 mmHg 87%
08:00 +13°C° 0 mm 2 mps 761 mmHg 83%
09:00 +15°C° 0 mm 2 mps 761 mmHg 80%
10:00 +16°C° 0.1 mm 2 mps 761 mmHg 72%
11:00 +18°C° 0.1 mm 2 mps 761 mmHg 65%
12:00 +20°C° 0.1 mm 2 mps 761 mmHg 58%
13:00 +20°C° 0 mm 2 mps 760 mmHg 55%
14:00 +21°C° 0 mm 3 mps 760 mmHg 53%
15:00 +21°C° 0 mm 3 mps 759 mmHg 51%
16:00 +20°C° 0 mm 3 mps 759 mmHg 57%
17:00 +18°C° 0 mm 3 mps 759 mmHg 63%
18:00 +17°C° 0 mm 3 mps 759 mmHg 69%
19:00 +16°C° 0 mm 3 mps 759 mmHg 73%
20:00 +14°C° 0 mm 3 mps 760 mmHg 78%
21:00 +12°C° 0 mm 3 mps 760 mmHg 82%
22:00 +12°C° 0 mm 4 mps 760 mmHg 85%
23:00 +11°C° 0 mm 4 mps 760 mmHg 88%

Day after tomorrow, 8 March, Monday

Time Temperature Precipitation Wind Pressure Humidity
00:00 +10°C° 0 mm 5 mps 760 mmHg 91%
01:00 +9°C° 0 mm 5 mps 760 mmHg 91%
02:00 +10°C° 0 mm 4 mps 760 mmHg 91%
03:00 +10°C° 0 mm 4 mps 759 mmHg 91%
04:00 +8°C° 0 mm 4 mps 759 mmHg 91%
05:00 +8°C° 0 mm 4 mps 759 mmHg 92%
06:00 +7°C° 0 mm 4 mps 759 mmHg 92%
07:00 +8°C° 0 mm 4 mps 760 mmHg 87%
08:00 +10°C° 0 mm 4 mps 760 mmHg 82%
09:00 +10°C° 0 mm 5 mps 760 mmHg 78%
10:00 +13°C° 0 mm 4 mps 760 mmHg 68%
11:00 +14°C° 0 mm 4 mps 760 mmHg 59%
12:00 +17°C° 0 mm 4 mps 761 mmHg 49%
13:00 +18°C° 0 mm 4 mps 760 mmHg 48%
14:00 +18°C° 0 mm 4 mps 760 mmHg 47%
15:00 +18°C° 0 mm 4 mps 759 mmHg 47%
16:00 +17°C° 0 mm 4 mps 759 mmHg 54%
17:00 +15°C° 0 mm 4 mps 759 mmHg 61%
18:00 +14°C° 0 mm 3 mps 759 mmHg 69%
19:00 +13°C° 0 mm 4 mps 760 mmHg 74%
20:00 +11°C° 0 mm 4 mps 760 mmHg 80%
21:00 +9°C° 0 mm 5 mps 761 mmHg 85%
22:00 +8°C° 0 mm 4 mps 761 mmHg 87%
23:00 +8°C° 0 mm 4 mps 761 mmHg 89%

9 March, Tuesday

Time Temperature Precipitation Wind Pressure Humidity
00:00 +7°C° 0 mm 4 mps 761 mmHg 92%
01:00 +7°C° 0 mm 4 mps 761 mmHg 92%
02:00 +7°C° 0 mm 4 mps 761 mmHg 92%
03:00 +7°C° 0 mm 3 mps 761 mmHg 92%
04:00 +7°C° 0 mm 3 mps 761 mmHg 91%
05:00 +7°C° 0 mm 3 mps 761 mmHg 91%
06:00 +7°C° 0 mm 3 mps 761 mmHg 91%
07:00 +8°C° 0 mm 3 mps 761 mmHg 85%
08:00 +10°C° 0 mm 2 mps 762 mmHg 79%
09:00 +12°C° 0 mm 2 mps 762 mmHg 73%
10:00 +14°C° 0 mm 2 mps 762 mmHg 67%
11:00 +16°C° 0 mm 1 mps 762 mmHg 60%
12:00 +19°C° 0 mm 1 mps 762 mmHg 54%
13:00 +19°C° 0 mm 1 mps 762 mmHg 52%
14:00 +20°C° 0 mm 1 mps 762 mmHg 50%
15:00 +20°C° 0 mm 1 mps 761 mmHg 48%
16:00 +18°C° 0 mm 2 mps 761 mmHg 55%
17:00 +17°C° 0 mm 2 mps 762 mmHg 62%
18:00 +16°C° 0 mm 3 mps 762 mmHg 69%
19:00 +15°C° 0 mm 2 mps 763 mmHg 73%
20:00 +13°C° 0 mm 2 mps 763 mmHg 78%
21:00 +12°C° 0 mm 1 mps 764 mmHg 83%
22:00 +12°C° 0 mm 1 mps 764 mmHg 82%
23:00 +12°C° 0 mm 2 mps 764 mmHg 82%

10 March, Wednesday

Time Temperature Precipitation Wind Pressure Humidity
00:00 +10°C° 0 mm 2 mps 764 mmHg 81%
01:00 +10°C° 0 mm 2 mps 764 mmHg 82%
02:00 +10°C° 0 mm 2 mps 765 mmHg 83%
03:00 +9°C° 0 mm 2 mps 765 mmHg 84%
04:00 +9°C° 0 mm 2 mps 765 mmHg 85%
05:00 +9°C° 0 mm 2 mps 765 mmHg 86%
06:00 +9°C° 0 mm 1 mps 765 mmHg 87%
07:00 +10°C° 0 mm 2 mps 766 mmHg 82%
08:00 +13°C° 0 mm 2 mps 766 mmHg 76%
09:00 +14°C° 0 mm 2 mps 767 mmHg 71%
10:00 +16°C° 0 mm 2 mps 767 mmHg 66%
11:00 +17°C° 0 mm 2 mps 767 mmHg 61%
12:00 +19°C° 0 mm 2 mps 767 mmHg 56%
13:00 +20°C° 0 mm 2 mps 767 mmHg 54%
14:00 +20°C° 0 mm 2 mps 766 mmHg 52%
15:00 +20°C° 0 mm 2 mps 766 mmHg 50%
16:00 +19°C° 0 mm 2 mps 766 mmHg 58%
17:00 +18°C° 0 mm 2 mps 766 mmHg 66%
18:00 +17°C° 0 mm 2 mps 766 mmHg 74%
19:00 +15°C° 0 mm 2 mps 766 mmHg 78%
20:00 +14°C° 0 mm 2 mps 767 mmHg 82%
21:00 +13°C° 0 mm 2 mps 767 mmHg 86%
22:00 +13°C° 0 mm 2 mps 767 mmHg 85%
23:00 +13°C° 0 mm 2 mps 767 mmHg 84%

11 March, Thursday

Time Temperature Precipitation Wind Pressure Humidity
00:00 +12°C° 0 mm 1 mps 767 mmHg 83%
01:00 +12°C° 0 mm 1 mps 767 mmHg 83%
02:00 +12°C° 0 mm 1 mps 767 mmHg 82%
03:00 +11°C° 0 mm 1 mps 766 mmHg 82%
04:00 +11°C° 0 mm 1 mps 766 mmHg 83%
05:00 +9°C° 0 mm 2 mps 766 mmHg 84%
06:00 +9°C° 0 mm 2 mps 766 mmHg 85%
07:00 +12°C° 0 mm 2 mps 767 mmHg 80%
08:00 +13°C° 0 mm 2 mps 767 mmHg 75%
09:00 +15°C° 0 mm 2 mps 767 mmHg 69%
10:00 +17°C° 0 mm 2 mps 767 mmHg 64%
11:00 +18°C° 0 mm 2 mps 767 mmHg 58%
12:00 +21°C° 0 mm 1 mps 767 mmHg 53%
13:00 +20°C° 0 mm 2 mps 766 mmHg 51%
14:00 +21°C° 0 mm 2 mps 766 mmHg 49%
15:00 +21°C° 0 mm 2 mps 765 mmHg 47%
16:00 +20°C° 0 mm 2 mps 765 mmHg 54%
17:00 +19°C° 0 mm 2 mps 765 mmHg 60%
18:00 +18°C° 0 mm 2 mps 764 mmHg 67%
19:00 +16°C° 0 mm 2 mps 765 mmHg 71%
20:00 +15°C° 0 mm 2 mps 765 mmHg 75%
21:00 +14°C° 0 mm 2 mps 765 mmHg 79%
22:00 +14°C° 0 mm 2 mps 765 mmHg 79%
23:00 +13°C° 0 mm 2 mps 765 mmHg 80%
Show more